Time,TemperatureF,DewpointF,PressureIn,WindDirection,WindDirectionDegrees,WindSpeedMPH,WindSpeedGustMPH,Humidity,HourlyPrecipIn,Conditions,Clouds,dailyrainin,SoftwareType,DateUTC
2016-09-29 00:13:00,72.9,56.3,29.84,West,270,0.0,-999.0,56,-99.99,,,0.00,Acu-Link.com,2016-09-29 07:13:00,
2016-09-29 00:28:00,72.1,56.0,29.83,ENE,67,0.0,-999.0,57,-99.99,,,0.00,Acu-Link.com,2016-09-29 07:28:00,
2016-09-29 00:44:00,72.5,56.9,29.84,SE,135,0.0,-999.0,58,-99.99,,,0.00,Acu-Link.com,2016-09-29 07:44:00,
2016-09-29 00:59:00,71.4,56.3,29.84,North,0,0.0,-999.0,59,-99.99,,,0.00,Acu-Link.com,2016-09-29 07:59:00,
2016-09-29 01:14:00,71.4,56.8,29.84,NNE,22,0.0,-999.0,60,-99.99,,,0.00,Acu-Link.com,2016-09-29 08:14:00,
2016-09-29 01:30:00,71.2,56.6,29.85,NE,45,2.7,-999.0,60,-99.99,,,0.00,Acu-Link.com,2016-09-29 08:30:00,
2016-09-29 01:45:00,71.2,56.1,29.85,NE,45,0.0,-999.0,59,-99.99,,,0.00,Acu-Link.com,2016-09-29 08:45:00,
2016-09-29 02:00:00,70.3,55.7,29.85,NNE,22,0.0,-999.0,60,-99.99,,,0.00,Acu-Link.com,2016-09-29 09:00:00,
2016-09-29 02:16:00,70.3,55.7,29.85,NW,315,0.0,-999.0,60,-99.99,,,0.00,Acu-Link.com,2016-09-29 09:16:00,
2016-09-29 02:31:00,70.2,55.7,29.85,WNW,292,0.0,-999.0,60,-99.99,,,0.00,Acu-Link.com,2016-09-29 09:31:00,
2016-09-29 02:46:00,70.0,55.9,29.85,SE,135,0.0,-999.0,61,-99.99,,,0.00,Acu-Link.com,2016-09-29 09:46:00,
2016-09-29 03:01:00,68.9,55.8,29.86,SE,135,0.0,-999.0,63,-99.99,,,0.00,Acu-Link.com,2016-09-29 10:01:00,
2016-09-29 03:17:00,68.4,56.2,29.86,NE,45,0.0,-999.0,65,-99.99,,,0.00,Acu-Link.com,2016-09-29 10:17:00,
2016-09-29 03:32:00,68.0,55.4,29.85,North,0,0.0,-999.0,64,-99.99,,,0.00,Acu-Link.com,2016-09-29 10:32:00,
2016-09-29 03:47:00,68.5,55.8,29.86,NNE,22,2.2,-999.0,64,-99.99,,,0.00,Acu-Link.com,2016-09-29 10:47:00,
2016-09-29 04:03:00,69.3,56.2,29.86,ENE,67,0.0,-999.0,63,-99.99,,,0.00,Acu-Link.com,2016-09-29 11:03:00,
2016-09-29 04:18:00,68.7,56.0,29.86,ESE,112,0.0,-999.0,64,-99.99,,,0.00,Acu-Link.com,2016-09-29 11:18:00,
2016-09-29 04:33:00,68.5,56.3,29.86,East,90,0.0,-999.0,65,-99.99,,,0.00,Acu-Link.com,2016-09-29 11:33:00,
2016-09-29 04:48:00,68.7,56.5,29.86,ESE,112,1.7,-999.0,65,-99.99,,,0.00,Acu-Link.com,2016-09-29 11:48:00,
2016-09-29 05:04:00,68.4,56.2,29.87,ENE,67,1.7,-999.0,65,-99.99,,,0.00,Acu-Link.com,2016-09-29 12:04:00,
2016-09-29 05:19:00,68.7,55.6,29.87,ENE,67,3.7,-999.0,63,-99.99,,,0.00,Acu-Link.com,2016-09-29 12:19:00,
2016-09-29 05:34:00,68.5,55.8,29.88,NNW,337,0.0,-999.0,64,-99.99,,,0.00,Acu-Link.com,2016-09-29 12:34:00,
2016-09-29 05:49:00,67.8,56.0,29.88,SSE,157,0.0,-999.0,66,-99.99,,,0.00,Acu-Link.com,2016-09-29 12:49:00,
2016-09-29 06:05:00,67.5,56.1,29.88,ESE,112,0.0,-999.0,67,-99.99,,,0.00,Acu-Link.com,2016-09-29 13:05:00,
2016-09-29 06:20:00,66.9,55.6,29.88,East,90,0.0,-999.0,67,-99.99,,,0.00,Acu-Link.com,2016-09-29 13:20:00,
2016-09-29 06:35:00,66.0,54.7,29.89,SSE,157,0.0,-999.0,67,-99.99,,,0.00,Acu-Link.com,2016-09-29 13:35:00,
2016-09-29 06:50:00,65.7,54.8,29.89,SSW,202,0.0,-999.0,68,-99.99,,,0.00,Acu-Link.com,2016-09-29 13:50:00,
2016-09-29 07:05:00,66.0,55.1,29.90,NE,45,0.0,-999.0,68,-99.99,,,0.00,Acu-Link.com,2016-09-29 14:05:00,
2016-09-29 07:21:00,69.8,57.1,29.90,NNE,22,0.0,-999.0,64,-99.99,,,0.00,Acu-Link.com,2016-09-29 14:21:00,
2016-09-29 07:36:00,74.5,57.8,29.90,NE,45,0.0,-999.0,56,-99.99,,,0.00,Acu-Link.com,2016-09-29 14:36:00,
2016-09-29 07:51:00,76.5,58.6,29.91,ESE,112,3.2,-999.0,54,-99.99,,,0.00,Acu-Link.com,2016-09-29 14:51:00,
2016-09-29 08:06:00,76.6,59.2,29.92,South,180,0.0,-999.0,55,-99.99,,,0.00,Acu-Link.com,2016-09-29 15:06:00,
2016-09-29 08:22:00,77.9,57.7,29.92,NNE,22,3.7,-999.0,50,-99.99,,,0.00,Acu-Link.com,2016-09-29 15:22:00,
2016-09-29 08:37:00,79.2,57.2,29.92,ESE,112,3.2,-999.0,47,-99.99,,,0.00,Acu-Link.com,2016-09-29 15:37:00,
2016-09-29 08:52:00,80.2,56.3,29.91,NE,45,3.7,-999.0,44,-99.99,,,0.00,Acu-Link.com,2016-09-29 15:52:00,
2016-09-29 09:07:00,81.7,56.3,29.92,NE,45,5.3,-999.0,42,-99.99,,,0.00,Acu-Link.com,2016-09-29 16:07:00,
2016-09-29 09:22:00,83.5,55.9,29.92,ESE,112,2.7,-999.0,39,-99.99,,,0.00,Acu-Link.com,2016-09-29 16:22:00,
2016-09-29 09:38:00,85.6,57.0,29.92,East,90,2.2,-999.0,38,-99.99,,,0.00,Acu-Link.com,2016-09-29 16:38:00,
2016-09-29 09:53:00,85.6,57.0,29.92,SE,135,2.2,-999.0,38,-99.99,,,0.00,Acu-Link.com,2016-09-29 16:53:00,
2016-09-29 10:08:00,86.7,57.3,29.92,ESE,112,4.2,-999.0,37,-99.99,,,0.00,Acu-Link.com,2016-09-29 17:08:00,
2016-09-29 10:23:00,87.8,57.5,29.92,SSE,157,4.7,-999.0,36,-99.99,,,0.00,Acu-Link.com,2016-09-29 17:23:00,